CAPE
0 0 0 0 0 0 0 0 0 0 0 0 0 0 0 0 0 0 0 0 0 0 0 0 0 0 0 0 0 0 0 0 0 0 0 0 0 0 0 0 0 0 0 0 0
0 0 0 0 0 0 0 0 0 0 0 0 0 0 0 0 0 0 0 0 0 0 0 0 0 0 0 0 0 0 0 0 0 0 0 0 0 0 0 0 0 0 0 0 0
0 0 0 0 0 0 0 0 0 0 0 0 0 0 0 0 0 0 0 0 0 0 0 0 0 0 0 0 0 0 0 0 0 0 0 0 0 0 0 0 0 0 0 0 0
0 0 0 0 0 0 0 0 0 0 0 0 0 0 0 0 0 0 0 0 0 0 0 0 0 0 0 0 0 0 0 0 0 0 0 0 0 0 0 0 0 0 0 0 0
0 0 0 0 0 0 0 0 0 0 0 0 0 0 0 0 0 0 0 0 0 0 0 0 0 0 0 0 0 0 0 0 0 0 0 0 0 0 0 0 0 0 0 0 0
1 0 0 0 0 0 0 0 0 0 0 0 0 0 0 0 0 0 0 0 0 0 0 0 0 0 0 0 0 0 0 0 0 0 0 0 0 0 0 0 0 0 0 0 0
0 0 0 0 0 0 0 0 0 0 0 0 0 0 0 0 0 0 0 0 0 0 0 0 0 0 0 0 0 0 0 0 0 0 0 0 0 0 0 0 0 0 0 0 0
0 0 1 0 0 0 0 0 0 0 0 0 0 0 0 0 0 0 0 0 0 0 0 0 0 0 0 0 0 0 0 0 0 0 0 0 0 0 0 0 0 0 0 0 0
0 0 0 0 0 0 0 0 0 0 0 0 0 0 0 0 0 0 0 0 0 0 0 0 0 0 0 0 0 0 0 0 0 0 0 0 0 0 0 0 0 0 0 0 0
0 0 0 0 0 0 0 0 0 0 0 0 0 0 0 0 0 0 0 0 0 0 0 0 0 0 0 0 0 0 0 0 0 0 0 0 0 0 0 0 0 0 0 0 0
0 0 0 0 0 0 0 0 0 0 0 0 0 0 0 0 0 0 0 0 0 0 0 0 0 0 0 0 0 0 0 0 0 0 0 0 0 0 0 0 0 0 0 0 0
21 7 0 0 0 0 0 0 0 0 0 0 0 0 0 0 0 0 0 0 0 0 0 0 0 0 0 0 0 0 0 0 0 0 0 0 0 0 0 0 0 0 0 0 0
28 33 1 1 0 0 0 0 0 0 0 0 0 0 0 0 0 0 0 0 0 0 0 0 0 0 0 0 0 0 0 0 0 0 0 0 0 0 0 0 0 0 0 0 0
0 1 8 2 2 0 0 0 0 0 0 0 0 0 0 0 0 0 0 0 0 0 0 0 0 0 0 0 0 0 0 0 0 0 0 0 0 0 0 0 0 0 0 0 0
0 0 1 0 0 0 0 0 0 0 0 0 0 0 0 0 0 0 0 0 0 0 0 0 0 0 0 0 0 0 0 0 0 0 0 0 0 0 0 0 0 0 0 0 0
0 0 0 1 1 0 0 0 3 0 0 0 0 0 0 0 0 0 0 0 0 0 0 0 0 0 0 0 0 0 0 0 0 0 0 0 0 0 0 0 0 0 0 0 0
0 0 4 9 1 0 0 0 1 0 0 0 0 0 0 0 0 0 0 0 0 0 0 0 0 0 0 0 0 0 0 0 0 0 0 0 0 0 0 0 0 0 0 0 0
0 0 0 6 3 3 0 1 0 0 0 0 0 0 0 0 0 0 0 0 0 0 0 0 0 0 0 0 0 0 0 0 0 0 0 0 0 0 0 0 0 0 0 0 0
0 0 0 0 13 21 3 0 0 0 0 0 0 0 0 0 0 0 0 0 0 0 0 0 0 0 0 0 0 0 0 0 0 0 0 0 0 0 0 0 0 0 0 0 0
0 0 0 0 12 58 96 10 0 0 0 0 0 0 0 0 0 0 0 0 0 0 0 0 0 0 0 0 0 0 0 0 0 0 0 0 0 0 0 0 0 0 0 0 0
1 3 0 0 103 121 24 13 0 0 0 0 0 0 0 0 0 0 0 0 0 0 0 0 0 0 0 0 0 0 0 0 0 0 0 0 0 0 0 0 0 0 0 0 0
13 2 0 71 63 28 42 2 4 0 0 0 0 0 0 0 0 0 0 0 0 0 0 0 0 0 0 0 0 0 0 0 0 0 0 0 0 0 0 0 0 0 0 0 0
19 11 2 121 13 1 1 2 10 10 2 0 0 0 0 0 0 0 0 0 0 0 0 0 0 0 0 0 0 0 0 0 0 0 0 0 0 0 0 0 0 0 0 0 0
27 2 6 12 8 1 0 0 12 3 21 0 0 1 5 4 0 0 0 0 0 0 0 0 0 0 0 0 0 0 0 0 0 0 0 0 0 0 0 0 0 0 0 0 0
16 10 5 11 0 0 1 2 0 5 2 1 7 3 1 5 12 0 0 0 0 0 0 0 0 0 0 0 0 0 0 0 0 0 0 0 0 0 0 0 0 0 0 0 0
0 2 3 2 8 1 0 0 0 0 2 0 5 2 0 13 8 1 6 3 0 0 0 0 0 0 0 0 0 0 0 0 0 0 0 0 0 0 0 0 0 0 0 0 0
0 7 24 0 0 0 1 0 0 0 0 0 0 3 0 1 0 1 8 1 3 0 0 0 1 0 0 0 0 0 0 0 0 0 0 0 0 0 0 0 0 0 0 0 0
CIN
-0 -0 -0 -0 -0 -0 -0 -0 -0 -0 -0 -0 -0 -0 -0 -0 -0 -0 -0 -0 -0 -0 -0 -0 -0 -0 -0 -0 -0 -0 -0 -0 -0 -0 -0 -0 -0 -0 -0 -0 -0 -0 -0 -0 -0
-0 -0 -0 -0 -0 -0 -0 -0 -0 -0 -0 -0 -0 -0 -0 -0 -0 -0 -0 -0 -0 -0 -0 -0 -0 -0 -0 -0 -0 -0 -0 -0 -0 -0 -0 -0 -0 -0 -0 -0 -0 -0 -0 -0 -0
-0 -0 -0 -0 -0 -0 -0 -0 -0 -0 -0 -0 -0 -0 -0 -0 -0 -0 -0 -0 -0 -0 -0 -0 -0 -0 -0 -0 -0 -0 -0 -0 -0 -0 -0 -0 -0 -0 -0 -0 -0 -0 -0 -0 -0
-0 -0 -0 -0 -0 -0 -0 -0 -0 -0 -0 -0 -0 -0 -0 -0 -0 -0 -0 -0 -0 -0 -0 -0 -0 -0 -0 -0 -0 -0 -0 -0 -0 -0 -0 -0 -0 -0 -0 -0 -0 -0 -0 -0 -0
-0 -0 -0 -0 -0 -0 -0 -0 -0 -0 -0 -0 -0 -0 -0 -0 -0 -0 -0 -0 -0 -0 -0 -0 -0 -0 -0 -0 -0 -0 -0 -0 -0 -0 -0 -0 -0 -0 -0 -0 -0 -0 -0 -0 -0
-0 -0 -0 -0 -0 -0 -0 -0 -0 -0 -0 -0 -0 -0 -0 -0 -0 -0 -0 -0 -0 -0 -0 -0 -0 -0 -0 -0 -0 -0 -0 -0 -0 -0 -0 -0 -0 -0 -0 -0 -0 -0 -0 -0 -0
-0 -0 -0 -0 -0 -0 -0 -0 -0 -0 -0 -0 -0 -0 -0 -0 -0 -0 -0 -0 -0 -0 -0 -0 -0 -0 -0 -0 -0 -0 -0 -0 -0 -0 -0 -0 -0 -0 -0 -0 -0 -0 -0 -0 -0
-0 -0 -0 -0 -0 -0 -0 -0 -0 -0 -0 -0 -0 -0 -0 -0 -0 -0 -0 -0 -0 -0 -0 -0 -0 -0 -0 -0 -0 -0 -0 -0 -0 -0 -0 -0 -0 -0 -0 -0 -0 -0 -0 -0 -0
-0 -0 -0 -0 -0 -0 -0 -0 -0 -0 -0 -0 -0 -0 -0 -0 -0 -0 -0 -0 -0 -0 -0 -0 -0 -0 -0 -0 -0 -0 -0 -0 -0 -0 -0 -0 -0 -0 -0 -0 -0 -0 -0 -0 -0
-0 -0 -0 -0 -0 -0 -0 -0 -0 -0 -0 -0 -0 -0 -0 -0 -0 -0 -0 -0 -0 -0 -0 -0 -0 -0 -0 -0 -0 -0 -0 -0 -0 -0 -0 -0 -0 -0 -0 -0 -0 -0 -0 -0 -0
-0 -0 -0 -0 -0 -0 -0 -0 -0 -0 -0 -0 -0 -0 -0 -0 -0 -0 -0 -0 -0 -0 -0 -0 -0 -0 -0 -0 -0 -0 -0 -0 -0 -0 -0 -0 -0 -0 -0 -0 -0 -0 -0 -0 -0
-45 -31 -0 -0 -0 -0 -0 -0 -0 -0 -0 -0 -0 -0 -0 -0 -0 -0 -0 -0 -0 -0 -0 -0 -0 -0 -0 -0 -0 -0 -0 -0 -0 -0 -0 -0 -0 -0 -0 -0 -0 -0 -0 -0 -0
-63 -23 -7 -0 -0 -0 -0 -0 -0 -0 -0 -0 -0 -0 -0 -0 -0 -0 -0 -0 -0 -0 -0 -0 -0 -0 -0 -0 -0 -0 -0 -0 -0 -0 -0 -0 -0 -0 -0 -0 -0 -0 -0 -0 -0
-0 -37 -49 -1 -0 -0 -0 -0 -0 -0 -0 -0 -0 -0 -0 -0 -0 -0 -0 -0 -0 -0 -0 -0 -0 -0 -0 -0 -0 -0 -0 -0 -0 -0 -0 -0 -0 -0 -0 -0 -0 -0 -0 -0 -0
-0 -0 -0 -0 -0 -0 -0 -0 -0 -0 -0 -0 -0 -0 -0 -0 -0 -0 -0 -0 -0 -0 -0 -0 -0 -0 -0 -0 -0 -0 -0 -0 -0 -0 -0 -0 -0 -0 -0 -0 -0 -0 -0 -0 -0
-0 -0 -0 -0 -0 -0 -0 -0 -3 -0 -0 -0 -0 -0 -0 -0 -0 -0 -0 -0 -0 -0 -0 -0 -0 -0 -0 -0 -0 -0 -0 -0 -0 -0 -0 -0 -0 -0 -0 -0 -0 -0 -0 -0 -0
-0 -0 -0 -2 -0 -0 -0 -0 -0 -0 -0 -0 -0 -0 -0 -0 -0 -0 -0 -0 -0 -0 -0 -0 -0 -0 -0 -0 -0 -0 -0 -0 -0 -0 -0 -0 -0 -0 -0 -0 -0 -0 -0 -0 -0
-0 -0 -0 -7 -14 -24 -0 -0 -0 -0 -0 -0 -0 -0 -0 -0 -0 -0 -0 -0 -0 -0 -0 -0 -0 -0 -0 -0 -0 -0 -0 -0 -0 -0 -0 -0 -0 -0 -0 -0 -0 -0 -0 -0 -0
-0 -0 -0 -0 -17 -9 -5 -0 -0 -0 -0 -0 -0 -0 -0 -0 -0 -0 -0 -0 -0 -0 -0 -0 -0 -0 -0 -0 -0 -0 -0 -0 -0 -0 -0 -0 -0 -0 -0 -0 -0 -0 -0 -0 -0
-0 -0 -0 -0 -25 -9 -4 -0 -0 -0 -0 -0 -0 -0 -0 -0 -0 -0 -0 -0 -0 -0 -0 -0 -0 -0 -0 -0 -0 -0 -0 -0 -0 -0 -0 -0 -0 -0 -0 -0 -0 -0 -0 -0 -0
-8 -5 -0 -0 -0 -0 -5 -0 -0 -0 -0 -0 -0 -0 -0 -0 -0 -0 -0 -0 -0 -0 -0 -0 -0 -0 -0 -0 -0 -0 -0 -0 -0 -0 -0 -0 -0 -0 -0 -0 -0 -0 -0 -0 -0
-2 -0 -0 -6 -0 -0 -0 -5 -3 -0 -0 -0 -0 -0 -0 -0 -0 -0 -0 -0 -0 -0 -0 -0 -0 -0 -0 -0 -0 -0 -0 -0 -0 -0 -0 -0 -0 -0 -0 -0 -0 -0 -0 -0 -0
-0 -1 -22 -0 -0 -2 -1 -0 -0 -2 -5 -0 -0 -0 -0 -0 -0 -0 -0 -0 -0 -0 -0 -0 -0 -0 -0 -0 -0 -0 -0 -0 -0 -0 -0 -0 -0 -0 -0 -0 -0 -0 -0 -0 -0
-2 -5 -5 -5 -12 -0 -0 -0 -1 -6 -1 -1 -0 -3 -5 -6 -0 -0 -0 -0 -0 -0 -0 -0 -0 -0 -0 -0 -0 -0 -0 -0 -0 -0 -0 -0 -0 -0 -0 -0 -0 -0 -0 -0 -0
-2 -1 -17 -0 -0 -0 -0 -0 -0 -0 -2 -1 -0 -8 -0 -0 -0 -1 -0 -0 -0 -0 -0 -0 -0 -0 -0 -0 -0 -0 -0 -0 -0 -0 -0 -0 -0 -0 -0 -0 -0 -0 -0 -0 -0
-0 -5 -9 -11 -4 -1 -0 -0 -0 -0 -0 -0 -0 -0 -0 -0 -0 -0 -4 -4 -0 -0 -0 -0 -0 -0 -0 -0 -0 -0 -0 -0 -0 -0 -0 -0 -0 -0 -0 -0 -0 -0 -0 -0 -0
-0 -15 -1 -0 -0 -0 -0 -0 -0 -0 -0 -2 -0 -0 -0 -11 -1 -4 -8 -19 -13 -0 -0 -0 -0 -0 -0 -0 -0 -0 -0 -0 -0 -0 -0 -0 -0 -0 -0 -0 -0 -0 -0 -0 -0
Wind_Speed
12 13 14 14 14 15 15 16 17 17 18 19 19 19 19 19 18 15 15 16 16 17 16 16 14 14 13 12 13 12 12 12 13 9 11 10 10 12 11 10 11 12 9 10 12
13 13 14 14 15 16 16 17 18 18 19 20 20 20 20 20 16 16 17 18 18 17 15 14 13 14 13 13 14 13 12 12 14 13 9 8 8 10 10 8 11 10 9 9 8
15 15 15 16 16 17 18 18 19 20 20 20 21 21 21 19 15 16 17 17 17 16 16 16 15 14 13 13 14 13 12 12 14 16 11 8 9 8 7 5 4 4 6 6 5
18 17 17 18 18 18 19 20 20 21 21 21 22 22 22 16 14 16 15 16 16 17 15 14 14 14 14 14 14 14 14 14 14 16 13 9 11 9 6 8 6 4 6 5 5
21 20 20 20 20 20 21 21 22 22 22 22 22 23 18 19 19 16 15 15 15 14 13 13 13 14 14 15 16 17 16 15 15 14 14 13 10 9 9 8 8 6 4 3 2
23 24 23 22 22 22 22 23 23 24 23 23 23 23 19 21 17 16 15 15 15 14 13 14 14 15 15 16 18 16 18 17 16 15 13 10 11 11 11 4 4 2 1 1 1
24 25 26 25 25 24 25 25 25 25 25 25 23 21 23 25 19 16 15 16 16 16 15 16 15 16 16 18 18 19 23 23 18 13 13 13 15 7 9 2 2 2 3 4 4
25 24 26 27 27 27 27 27 28 27 27 26 26 22 27 20 18 19 18 18 17 16 15 17 16 15 17 16 19 22 23 24 20 12 16 13 15 15 8 4 5 4 5 5 6
25 25 25 26 28 29 29 30 30 29 28 27 24 24 29 20 22 21 18 18 16 17 17 16 16 17 17 19 24 23 25 22 26 14 16 13 22 18 13 5 6 6 6 6 9
28 26 25 26 27 28 30 31 30 30 25 23 25 28 27 24 19 18 18 15 18 16 18 18 19 22 20 19 28 25 24 25 23 20 18 19 16 20 17 9 8 8 8 9 9
32 28 27 26 26 27 28 27 30 31 29 31 28 27 24 21 18 19 16 15 17 20 21 21 24 25 20 19 25 26 27 27 24 23 25 23 18 17 18 14 14 13 12 11 12
31 30 28 25 25 25 25 29 29 28 37 36 36 36 27 23 25 22 16 20 21 25 20 23 29 22 23 23 25 27 32 34 33 28 24 30 27 25 24 17 13 14 13 13 13
33 33 29 27 24 25 29 28 23 25 37 40 36 37 33 29 33 28 19 22 25 26 24 27 26 21 21 24 26 27 29 31 31 30 29 35 40 28 26 19 16 16 16 16 17
30 31 30 22 30 28 30 25 23 25 41 44 38 38 33 29 39 27 22 24 28 30 28 34 29 27 25 27 23 34 25 28 30 33 39 27 54 34 29 27 18 18 17 17 18
26 28 23 18 26 31 29 18 17 23 49 34 33 25 26 31 30 32 27 30 34 30 27 36 29 27 30 28 21 32 25 27 30 33 37 33 39 39 28 30 20 16 18 18 17
27 25 22 27 30 26 21 16 21 35 50 34 30 32 28 30 31 27 28 27 29 33 36 38 29 28 29 26 22 22 26 28 30 32 41 25 31 52 27 32 36 22 27 21 17
28 27 24 21 35 21 17 22 32 45 35 40 36 32 33 33 32 30 30 33 34 36 41 37 38 32 28 30 26 23 25 36 38 35 40 33 31 29 26 35 23 38 30 24 18
29 29 28 27 21 13 17 31 40 36 41 31 31 33 38 34 36 34 32 35 36 34 34 37 44 32 29 31 30 26 26 32 40 39 41 31 34 33 22 20 25 27 34 26 18
31 30 30 29 25 18 29 49 49 41 34 36 32 35 37 36 36 37 40 42 38 35 38 37 43 31 29 27 23 28 30 27 38 37 44 37 41 43 29 29 26 24 29 24 16
29 32 36 27 25 26 42 56 49 41 35 34 42 36 41 37 35 34 35 36 40 33 32 33 43 32 28 25 27 27 19 28 27 36 40 37 38 33 30 21 17 17 24 18 14
29 35 32 23 23 35 53 54 48 42 36 34 39 37 40 37 37 39 40 37 30 30 29 34 36 34 27 30 28 27 29 27 25 29 35 43 42 26 21 18 21 21 21 17 13
32 42 28 18 34 37 53 47 44 46 45 41 35 37 40 38 38 41 46 40 27 27 32 31 33 42 36 30 30 30 32 28 31 32 32 38 45 23 23 22 24 27 25 18 14
39 41 31 26 43 48 43 43 42 41 46 48 48 43 41 38 40 40 43 36 30 29 28 24 34 41 39 36 31 33 30 28 31 31 38 37 37 20 20 23 24 27 27 24 18
36 42 39 40 41 39 48 53 51 40 45 45 48 44 43 46 43 43 42 35 30 33 29 23 33 38 43 34 28 37 33 32 32 40 39 39 43 35 30 30 30 33 30 23 17
37 44 38 40 52 52 42 36 49 51 46 42 46 50 49 50 47 47 45 41 35 36 35 30 44 41 49 45 39 40 38 36 38 40 39 43 41 35 35 37 38 36 29 24 23
41 42 40 48 38 43 53 55 49 43 37 43 47 51 50 53 49 52 47 46 47 37 37 37 48 46 58 48 43 46 44 41 40 40 40 43 44 37 37 36 36 35 31 28 27
36 39 42 41 48 47 45 50 54 47 46 43 46 44 42 46 48 52 51 46 44 46 45 42 42 44 52 46 42 48 46 42 42 41 39 44 44 42 43 40 38 36 33 32 30
Wind_Direction
289 289 290 292 294 293 293 292 295 292 289 287 285 281 278 278 272 273 274 265 261 260 265 262 274 278 290 302 308 326 346 350 354 32 25 61 47 52 49 48 6 345 37 51 99
288 289 289 292 293 293 291 293 291 291 288 286 282 280 278 278 275 273 263 261 260 263 272 282 286 287 301 306 309 323 339 346 347 2 31 71 52 47 50 36 346 355 19 58 80
286 288 289 290 291 293 292 292 290 289 287 284 282 280 278 276 280 276 271 265 267 269 274 277 282 293 306 313 319 328 334 342 340 340 356 20 16 28 39 36 45 91 93 82 90
283 286 288 288 289 291 291 289 288 288 286 284 283 280 277 278 282 272 276 275 272 273 279 288 292 297 302 307 315 319 326 333 339 334 342 356 355 7 20 6 19 69 100 69 104
277 281 284 286 287 288 288 288 286 284 284 284 284 284 278 270 266 274 280 278 277 282 291 292 296 299 302 308 312 313 318 327 335 339 338 335 344 348 342 356 9 82 82 92 84
276 275 279 282 284 285 285 285 284 283 282 283 284 284 275 269 277 280 284 284 284 286 292 297 302 304 304 304 306 316 317 325 330 332 340 340 339 340 334 19 21 60 78 3 314
278 276 275 277 280 281 281 282 281 281 280 281 284 283 271 264 277 281 286 286 287 288 293 297 303 302 306 304 311 314 305 310 318 331 336 337 323 312 330 335 311 291 297 301 296
278 278 275 275 276 278 278 278 278 278 279 280 282 281 268 280 280 278 282 286 290 295 298 299 304 308 304 315 310 307 309 310 321 332 325 327 321 330 324 278 261 268 284 285 287
278 279 278 277 276 276 277 277 277 277 277 279 280 276 269 283 274 276 280 282 289 292 298 303 303 300 305 301 299 302 303 311 310 325 320 316 317 325 333 300 278 272 265 271 287
275 278 279 279 279 278 278 276 277 279 279 280 277 273 270 272 280 278 278 282 284 287 290 293 294 289 295 296 292 300 304 307 310 318 313 307 305 313 320 307 280 277 274 273 266
269 273 277 280 282 282 282 279 273 271 268 264 267 268 274 277 281 276 280 281 284 282 279 284 281 281 289 289 295 299 300 302 309 312 309 305 297 302 305 299 292 286 273 261 249
268 271 273 278 283 284 283 273 273 277 269 266 264 264 272 271 271 271 274 273 275 275 280 283 279 287 293 290 290 294 295 296 301 306 304 303 298 298 299 290 264 258 259 255 270
267 269 271 272 280 280 274 274 287 285 270 267 265 263 263 264 265 263 259 271 274 273 272 276 287 294 286 289 289 290 292 297 298 307 307 305 298 297 298 286 281 252 255 260 247
279 274 268 270 265 269 273 283 280 289 269 265 265 267 260 261 265 262 254 269 272 271 275 279 281 287 287 284 286 287 297 295 299 301 298 308 288 301 302 299 292 246 274 265 271
287 282 278 258 271 262 276 281 282 280 263 268 261 274 262 254 265 261 260 266 265 268 273 276 281 277 279 284 285 290 300 299 299 297 298 296 300 299 303 300 298 279 284 286 276
286 284 281 264 266 271 278 280 271 258 257 263 263 259 256 257 265 268 259 269 272 268 271 275 284 280 282 286 283 295 297 301 301 298 291 289 293 276 298 299 296 294 300 298 282
285 281 276 269 263 271 263 256 255 253 264 261 263 259 257 258 261 262 257 254 259 265 266 274 273 279 280 281 285 281 289 289 290 290 290 299 290 251 307 297 303 286 303 306 296
284 281 273 267 268 247 253 254 255 256 254 266 267 263 258 260 262 261 260 258 258 267 275 270 274 268 273 268 276 270 271 278 286 289 292 296 290 301 307 307 304 304 303 307 298
284 278 272 265 260 242 248 249 252 255 260 260 263 262 259 262 263 260 260 262 262 256 265 273 275 283 281 276 265 275 264 277 283 289 290 290 291 294 300 304 306 306 305 306 298
280 275 267 266 251 248 250 249 252 255 260 258 255 259 256 258 259 260 259 268 263 258 263 273 274 281 278 276 273 268 277 277 276 282 285 290 294 295 307 306 308 310 312 315 310
276 270 271 258 248 251 247 248 251 252 255 256 253 258 258 259 260 260 263 268 266 267 255 265 269 276 276 267 261 267 263 274 278 275 284 289 292 309 307 309 315 319 317 316 311
271 261 270 247 246 253 249 252 254 252 250 253 259 253 258 259 262 261 262 265 268 269 261 261 271 266 268 277 270 266 268 257 269 277 281 286 253 303 305 311 316 316 319 317 309
262 262 268 251 251 249 253 256 255 254 251 250 253 254 255 257 262 261 266 269 269 260 265 260 265 267 271 271 271 264 264 259 269 281 273 279 253 299 305 308 310 314 313 310 305
262 258 257 252 254 254 252 253 253 256 256 255 254 255 255 256 259 264 265 270 265 264 265 254 262 261 260 273 270 265 263 259 259 268 271 265 275 283 293 297 304 305 306 305 302
254 255 255 254 248 250 255 260 253 255 256 257 258 250 253 257 257 259 262 266 270 266 261 255 265 265 266 269 270 271 268 260 254 250 268 252 278 270 285 290 296 298 298 293 292
250 253 258 254 257 251 249 251 255 255 259 254 255 255 252 255 256 261 263 263 263 268 266 262 264 265 266 268 269 270 270 263 255 259 261 267 272 286 293 293 292 290 288 285 285
254 254 256 257 251 252 252 251 252 255 258 259 259 265 261 258 263 264 264 267 266 262 264 262 262 263 266 268 269 269 257 264 267 263 264 267 260 287 286 287 287 287 283 281 282